This is the latest recevied weather packets stored in our database for station/object CA4LJZ-10. If no packets are shown the sender has not sent any weather packets the latest 10 day(s).
| Time | Temp. | Humidity | Pressure | Rain* | Wind** | Luminosity | Snow |
|---|---|---|---|---|---|---|---|
| 1788151213 | 67° F | 48% | 719.1 mmHg | - | - | - | - |
| 1788150313 | 65° F | 46% | 718.9 mmHg | - | - | - | - |
| 1788149412 | 67° F | 45% | 718.9 mmHg | - | - | - | - |
| 1788148511 | 69° F | 46% | 718.9 mmHg | - | - | - | - |
| 1788147610 | 69° F | 45% | 718.7 mmHg | - | - | - | - |
| 1788146709 | 67° F | 46% | 718.7 mmHg | - | - | - | - |
| 1788145808 | 69° F | 42% | 718.6 mmHg | - | - | - | - |
| 1788144907 | 69° F | 43% | 718.4 mmHg | - | - | - | - |
| 1788144006 | 68° F | 46% | 718.3 mmHg | - | - | - | - |
| 1788143106 | 69° F | 42% | 718.2 mmHg | - | - | - | - |
| 1788142205 | 70° F | 41% | 718 mmHg | - | - | - | - |
| 1788141304 | 71° F | 39% | 718 mmHg | - | - | - | - |
| 1788140403 | 71° F | 40% | 717.7 mmHg | - | - | - | - |
| 1788139502 | 70° F | 40% | 717.4 mmHg | - | - | - | - |
| 1788138601 | 71° F | 38% | 717.3 mmHg | - | - | - | - |
| 1788137700 | 71° F | 39% | 717.1 mmHg | - | - | - | - |
| 1788136799 | 72° F | 37% | 717.1 mmHg | - | - | - | - |
| 1788135899 | 74° F | 38% | 717.1 mmHg | - | - | - | - |
| 1788135019 | 73° F | 37% | 716.9 mmHg | - | - | - | - |
| 1788134117 | 73° F | 38% | 716.7 mmHg | - | - | - | - |
| 1788133216 | 73° F | 37% | 716.6 mmHg | - | - | - | - |
| 1788132315 | 73° F | 37% | 716.4 mmHg | - | - | - | - |
| 1788131415 | 74° F | 38% | 716.2 mmHg | - | - | - | - |
| 1788130514 | 74° F | 36% | 715.9 mmHg | - | - | - | - |
| 1788129613 | 74° F | 36% | 715.8 mmHg | - | - | - | - |
* Rain since midnight (hover to see other rain measurements)
** Current wind speed in m/s (hover to see current wind gust speed)